CHUANG XIN 26 (CX-26)

Last updated on Tue Sep 22 2026 00:03:30 GMT+0000 (Coordinated Universal Time)

1 69972U 26158A 26264.49574277 .00000107 00000+0 11289-3 0 9991 2 69972 49.9856 352.1647 0005223 183.8844 176.2030 14.25131421 10444
UTC large
Height (km)
Speed (km/s)
/
Latitude / Longitude
Inclination (degrees)
Orbital Period (minutes)
Azimuth
Elevation
Range (km)
Doppler Factor

Next 0 passes for location: London (51.5072 / 0.1276)

No passes found over London.
CHUANG XIN 26 (CX-26)